OBJECT D, 67749

Orbit data source: Space-Track

You're viewing an Uncataloged Satellite

Recently launched and/or uncataloged satellites may have evolving metadata. Metadata may include but not limited to: Owner, Maufacturer, Bus, Motor, and Mission.

OBJECT D, 67749 is a Chinese satellite in SSO that was launched on Thu, 12 Feb 2026 UTC via a JIELONG-3 launch vehicle from the South China Sea Launch Area (SCSLA). Unknown objects in Earth's orbit typically refer to objects detected orbiting the Earth but have not yet been identified or cataloged. These objects could be anything from previously untracked satellites, spent rocket stages, debris from satellite collisions, or even natural meteoroids temporarily captured by Earth's gravity.

Loading next visibility...
Identifier
67749, 2026-027D
Orbit
SSO
Country
Flag of CNCN / PRC
Related business
None
Manufacturer
Unknown
Mission
Operational Commercial Imaging
Bus & Motor
Unknown
Mass
Unknown
Launch date (UTC)
2026-02-12 (4 months ago)
Launch vehicle
JIELONG-3
Launch site
South China Sea Launch Area (SCSLA)
Object type
Unknown
Shape & HBR
Box + 1 Pan, 0.9 m
Radar Cross Section
0.445 m², Large (>1 m²)

Expand to show TLE details & history
Last TLE update: 6 hours ago

TLE from 6 hours ago
0 OBJECT D
1 67749U 26027D   26164.86969772  .00007829  00000-0  36819-3 0  9999
2 67749  97.5058 293.1770 0009099 229.8420 130.2019 15.19816585 18411
Epoch: 2026-06-13T20:52Z
TLE epoch observation values (Epoch: 2026-06-13T20:52:21.883Z)
Latitude
-0.00001°
Longitude
77.90723°
Altitude
513.529 km
Speed
7.605 km/s
True Right ascension
19h 32m 42s
True Declination
0° 00' 00"
Sunlit
Object was in full shadow at epoch
Visualization orbit readout
Latitude
Unknown
Longitude
Unknown
Altitude
Unknown
Speed
Unknown
Apparent Right ascension
Unknown
Apparent Declination
Unknown
Sunlit
N/A
Visualization observer readout
Local Sidereal Time
12:58:49
Azimuth
Unknown
Elevation
Unknown
Doppler factor
Unknown
Orbital elements
Apogee altitude
509.626 km
Perigee altitude
497.103 km
Semi-major axis
6,881.502 km
Eccentricity
0.00091
Inclination
97.5058°
RAAN
293.177°
Arg. of periapsis
229.842°
True anomaly
130.28148°
Mean anomaly
130.2019°
Eccentric anomaly
130.24169°
Mean motion
3.80205 °/min
Orbital period
94.69 mins
BSTAR
0.00036819
Loading maneuver chart data...
Computing Atmospheric mass density...
Loading historical data...
Loading historical data...
Loading historical data...
Loading historical data...
Loading historical data...
Loading historical data...
Loading historical data...

Documentation

Showing up to 5 results
|